Regional Weather Roundup
Issued by NWS

Current Version | Previous Version | Text Only | Print | Product List | Glossary On
Versions: 1 2 3 4 5 6 7 8 9 10 11 12 13 14 15 16 17 18 19 20 21 22 23 24 25 26 27 28 29 30 31 32 33 34 35 36 37 38 39 40 41 42 43 44 45 46 47 48 49 50
000
ASUS45 KBOI 131410
RWRID

IDAHO REGIONAL WEATHER ROUNDUP
NATIONAL WEATHER SERVICE BOISE ID
700 AM MST WED DEC 13 2017

NOTE: "FAIR" INDICATES FEW OR NO CLOUDS BELOW 12000 FEET
WITH NO SIGNIFICANT WEATHER AND/OR OBSTRUCTIONS TO VISIBILITY

IDZ012-014-131500-
SOUTHWEST IDAHO


CITY           SKY/WX    TMP DP  RH WIND       PRES   REMARKS
BOISE          CLOUDY    22  20  92 CALM      30.46S FOG
CALDWELL       NOT AVBL
MOUNTAIN HOME  FOG       21  21 100 CALM      30.46R VSB 1/2
$$

IDZ016-017-131500-
SOUTHCENTRAL IDAHO


CITY           SKY/WX    TMP DP  RH WIND       PRES   REMARKS
BURLEY         CLOUDY    22  17  81 CALM      30.36F HAZE
JEROME         HAZE      24  19  81 CALM      30.38F VSB 1/4
TWIN FALLS     FOG       20  17  88 CALM      30.37F VSB 1/4
$$

IDZ019>023-131500-
SOUTHEAST IDAHO


CITY           SKY/WX    TMP DP  RH WIND       PRES   REMARKS
IDAHO FALLS    CLOUDY    19  18  95 S3        30.34F
POCATELLO      FOG       19  16  88 S5        30.36F VSB 1/2 WCI  12
REXBURG        CLOUDY    24  20  84 CALM      30.33S
$$

IDZ006-010-011-018-031-032-131500-
CENTRAL IDAHO MOUNTAINS


CITY           SKY/WX    TMP DP  RH WIND       PRES   REMARKS
MCCALL         CLOUDY    24  19  81 CALM      30.31R
HAILEY         PTCLDY    19  18  93 CALM      30.32S
STANLEY          N/A     17  14  88 CALM      30.33F
SALMON         CLOUDY    19  15  84 CALM      30.39F
CHALLIS        CLOUDY    22  16  78 CALM      30.32F
$$

IDZ002-004-006-007-026-131500-
NORTHERN IDAHO


CITY           SKY/WX    TMP DP  RH WIND       PRES   REMARKS
LEWISTON       FLURRIES  29  26  89 SE6       30.48F WCI  23
LOWELL           N/A     31  27  85 N3        30.50R
COEUR D`ALENE  FLURRIES  26  24  92 CALM      30.42F
MULLAN PASS    LGT SNOW  22  19  89 N5        30.26F FOG     WCI  16
$$



USA.gov is the U.S. government's official web portal to all federal, state and local government web resources and services.